Location: Rounton
(54.4000°N, 1.3500°W)
Time: 02:08:18
(UTC+00:00)

Transit 4A - Pass Details

Date: 07 December 2021
Orbit: 864 x 981 km, 66.8° (Epoch: 19 January)

Event Time Altitude Azimuth Distance (km) Brightness Sun altitude
Rises 18:48:23 0° 204° (SSW) 3,464 11.2 -25.6°
Reaches altitude 10° 18:50:51 10° 201° (SSW) 2,542 10.4 -26.0°
Enters shadow 18:55:57 56° 152° (SSE) 1,068 8.0 -26.7°
